Timeline UpdatesTrip UpdatesNews PostsPvt PostsTravel TipsAdmin PostsConv PostsFollowed PostsChat RequestsBlog PostsPNR Posts

Disclaimer
Search
 
 
Sun Sep 21, 2014 01:30:59 ISTHomeTrainsΣChainsAtlasPNRForumGalleryNewsFAQTripsMembersLoginFeedback
Latest...
.
Wed Nov 13, 2013 (07:25AM)
⇐ Return Journey: Train# 16687

16688/Navyug Express

Time-Table HAS CHANGED.
Sep 04 (10:13PM)
Change Departure Station:
Change Arrival Station:
Post a Train Travel TipPost a Train Travel Tip **new
Post a Comment/Question/Picture/VideoPost a Comment/Question/Picture/Video
Pantry/Catering
✓ Pantry Car Avbl
✓ Catering Avbl
Good Food
RSA - Rake Sharing
NO RSA
Rake/Coach Composition
ED- MAQ ENG-SLR-UR-UR-A1-B1-S1-S2-S3-S4-S5-PC-SLR; ED TEN: [S6-S7-S8-S9-A2-UR-SLR ]; JAT - ED- ENG-SLR-UR-UR-A1-B1-S1-S2-S3-S4-S5-PC-S6-S7-S8-S9-A2-UR-SLR
Loco
JAT-NDLS WDM 3A TKD-SHED WAP-4 (NDLS 2 SRR) ERS WDM 3A SRR-MAQ
News    PNR    Forum    Time-Table    Availability    Fare Chart    Map    Arr/Dep History    Trips    Gallery    ΣChains    X/O    Timeline    
Travel Time: 8h 15m    5 halts    Distance: 411 km    Avg Speed: 49 km/hr
Type: Mail/Express
Zone: SR/Southern
Departs @ 14:15
Platform# 9
     F 
New Delhi/NDLS 
Arrives @ 22:30
Platform# ???
     F 
Jhansi Junction/JHS 

5 halts. 56 intermediate Stations between New Delhi and Jhansi Junction

Show ALL intermediate Stations  Show Old Time-Table

#CodeStation NameX/OArrivesAvgDepartsAvgHaltPFDay#KmSpeedElevZoneAddress
1JATJammu Tawi (3)  -23:45-21-592.865337mNRJammu 180002, Jammu and Kashmir
2SMBXSamba (2)  00:15-00:17-2m12-560.164365mNRDist. Samba, Jammu and Kashmir
3KTHUKathua (2)  00:58-01:00-2m22-516.549396mNRdistt. kathua, Jammu and Kashmir
4MDPBMadhopur Punjab (2)  01:10-01:12-2m12-508.356357mNRMadhopur, Punjab
5PTKCPathankot Cantt (3)  01:28-01:33-5m12-493.457328mNRPathankot By Pass Ph:0186-2251594, Punjab
6MEXMukerian (3)  02:15-02:17-2m12-453.553257mNRMukerian distt. hosiharpur, Punjab
7DZADasuya (2)X  02:34-02:36-2m22-438.558251mNRDasuya distt. hoshiarpur, Punjab
8TDOTanda Urmar (3)  02:52-02:54-2m22-423.162239mNRUrmar Tanda, Punjab
9JRCJalandhar Cantt. Junction (3)X  03:35-03:40-5m32-380.954239mNRNear Rama Mandi, Punjab
10PGWPhagwara Junction (3)  03:58-04:00-2m12-364.675245mNRPhagwara, Punjab
11PHRPhillaur Junction (3)X  04:18-04:20-2m12-342.020246mNRPhillaur, Punjab
12LDHLudhiana Junction (7)X  05:00-05:15-15m52-328.963246mNRLudhiana 141001, Punjab
13QRPKila Raipur (1)  05:32-05:34-2m12-311.251262mNRDelhon Pakhowal Rd, Punjab
14AHHAhmadgarh (1)  05:43-05:45-2m12-303.543256mNRAhmedgarh, Punjab
15METMalerkotla (2)  06:13-06:15-2m12-283.650248mNRMalerkotla., Punjab
16DUIDhuri Junction (4)X  06:35-07:00-25m--2-266.864248mNRDhuri, Punjab
17SAGSangrur (2)X  07:15-07:17-2m12-250.835239mNRSangrur, Punjab
18SFMSunam (1)  07:39-07:41-2m12-238.071235mNRSunam, Punjab
19LHALehra Gaga (1)  07:59-08:01-2m12-216.719227mNRSangrur, Punjab
20JHLJakhal Junction  08:55-09:00-5m--2-199.767225mNRJakhal, Haryana
21TUNTohana (2)  09:11-09:13-2m--2-187.561232mNRTohana, Haryana
22NRWNarwana Junction (4)X  09:38-09:40-2m--2-162.165235mNRWay to Narwana, Haryana
23UCAUchana  09:54-09:56-2m--2-146.958225mNRDistrict Jind, Haryana
24BZOBarsola  10:06-10:08-2m--2-137.334224mNRDistrict Jind, Haryana
25JINDJind Junction (3)X  10:24-10:27-3m--2-128.273222mNR126102., Haryana
26JNAJulana  10:50 10:48-10:52 10:50-2m--2-102.567226mNRJulana, Haryana
27ROKRohtak Junction (3)  11:45 11:18-11:47 11:20-2m--2-71.173220mNRRohtak, Haryana
28BGZBahadurgarh  12:19 11:53-12:21 11:55-2m--2-30.829220mNRBahadurgarh, Haryana
29SSBShakur Basti  12:56 12:36-12:58 12:38-2m--2-10.813216mNRPitampura, Delhi NCT
30NDLSNew Delhi (16)»X13:35 13:30-14:30 14:15-55 45m920.016215mNRNew Delhi, Delhi NCT
31NZMDelhi Hazrat Nizamuddin (7)X  14:45 14:43-14:55 14:45-10 2m427.435209mNRNew Delhi 110013, Delhi NCT
32FDBFaridabad (4)  15:38 15:21-15:40 15:23-2m3228.245206mNRold Faridabad, Haryana
33AGCAgra Cantt. (6)  19:05-19:10-5m12195.090174mNCRAgra, Uttar Pradesh
34DHODholpur Junction (3)  19:45-19:47-2m22247.662177mNCRDholpur, Rajasthan
35GWLGwalior Junction (4)  20:50-20:55-5m12313.062214mNCRGwalior, Madhya Pradesh
36JHSJhansi Junction (7)•X  22:30-22:40-10m--2410.767259mNCRJhansi, Uttar Pradesh
37BPLBhopal Junction (6)  02:55 03:03-03:00 03:05-5 2m13702.539497mWCRBhopal, Madhya Pradesh
38ETItarsi Junction (7)X  05:25-05:30-5m--3794.258329mWCRItarsi 461111, Madhya Pradesh
39NGPNagpur Junction (8)  10:35-10:45-10m231091.474314mCRNagpur 440001, Maharashtra
40SEGMSewagram Junction (5)  11:47-11:49-2m--31167.666279mCRWardha, Maharashtra
41CDChandrapur Maharashtra (3)  13:36-13:38-2m131286.216194mCRChandrapur 442401, Maharashtra
42BPQBalharshah Junction (5)  14:30-14:40-10m331300.074188mCRBallarpur. Ph : 07172 - 240341, Maharashtra
43RDMRamagundam (3)  16:35-16:37-2m231441.850170mSCRKarimnagar Dist. Ph : 08728 - 255237, Telangana
44WLWarangal (3)X  18:38-18:43-5m131542.967271mSCRWarangal., Telangana
45KMTKhammam (2)X  20:19-20:20-1m131650.531118mSCRKhammam 507001, Telangana
46BZAVijayawada Junction (10)X  23:35-23:45-10m731750.96224mSCRVijayawada 520001, Andhra Pradesh
47GDRGudur Junction (3)  04:28-04:30-2m142044.47119mSCRGudur, Andhra Pradesh
48RURenigunta Junction (5)X  05:40-05:50-10m242127.840113mSCRChittoor District, Andhra Pradesh
49TPTYTirupati Main (5)  06:05-06:10-5m242137.755150mSCRChittoor Distt, Andhra Pradesh
50CTOChittoor (3)  07:28-07:30-2m--42209.624305mSCR517001., Andhra Pradesh
51KPDKatpadi Junction (5)X  08:55 08:52-08:57-2 5m342242.671213mSRVellore 632007, Tamil Nadu
52JTJJolarpettai Junction (5)X  10:08-10:10-2m--42326.580405mSRJolarpettai, Tamil Nadu
53SASalem Junction (6)  11:40-11:45-5m--42446.743283mSRSalem, Tamil Nadu
54EDErode Junction (4)12:55 13:10-13:20-25 10m342508.170175mSRErode ph.no: 0424-2256111, Tamil Nadu
55TUPTiruppur (2)X  14:03-14:05-2m142558.355305mSRTiruppur. Ph:0421-2200450, Tamil Nadu
56CBECoimbatore Main Junction (6)X  15:00-15:05-5m142608.744416mSRCoimbatore 641001, Tamil Nadu
57PGTPalakkad Junction (4)  16:20-16:25-5m142664.05484mSRPalghat Tel: 0491 2555231, Kerala
58SRRShoranur Junction (7)17:15-17:25-10m242708.66526mSRShoranur ph.no 0466-2222913, Kerala
59CLTKozhikode Main (4)X  18:45-18:50-5m442795.07911mSRCalicut Tel: 0495 2701234, Kerala
60TLYThalassery (2)  19:42-19:45-3m--42863.3359mSRKannur, Kerala
61CANKannur Main (4)X  20:10 20:20-20:15 20:25-5m142884.08214mSRKannur Tel: 0497 2705555, Kerala
62KGQKasaragod (3)  21:28-21:30-2m242970.13718mSRTel: 04994 220800, Kerala
63MAQMangalore Central (4)  22:45--243015.8-14mSRMangalore 575001, Karnataka
Scroll to Top
Scroll to Bottom